◎2003 YQ117の軌道と予報位置です    [From JSGA Web News No. 73]



JSGA Web News No. 73                                               2006 May 22



アポロ型小惑星 2003 YQ117の観測

  2003年12月26日に20等級でハレアカラNEATサーベイで発見されたこの小惑星は2006年

8月中旬に地球に 0.38 AUまで接近する.今回の衝では,大きく地球に接近することは

ないが,石垣島に設置された新しい観測所(XXX)で黒田大輔氏によって5月19日と 20

日,また,美星スペースガードセンターでも5月21日に次のとおり追跡された.小惑星

は,14等級まで明るくなっている.なお,小惑星の RunOffは,10"以下で,まもなく,

登録されるだろう.



     K03YB7Q  C2006 05 19.73913 16 35 16.47 +01 13 52.3          15.6 R      XXX

     K03YB7Q  C2006 05 19.73988 16 35 16.40 +01 13 54.1          15.6 R      XXX

     K03YB7Q  C2006 05 19.74064 16 35 16.34 +01 13 56.1          15.6 R      XXX

     K03YB7Q  C2006 05 19.74139 16 35 16.29 +01 13 57.8          15.6 R      XXX

     K03YB7Q  C2006 05 19.74215 16 35 16.23 +01 13 59.6          15.6 R      XXX

     K03YB7Q  C2006 05 19.74291 16 35 16.17 +01 14 01.6          15.7 R      XXX

     K03YB7Q  C2006 05 19.74366 16 35 16.10 +01 14 03.3          15.6 R      XXX

     K03YB7Q  C2006 05 19.74441 16 35 16.04 +01 14 05.1          15.7 R      XXX

     K03YB7Q  C2006 05 19.74516 16 35 15.98 +01 14 07.0          15.6 R      XXX

     K03YB7Q  C2006 05 19.74591 16 35 15.91 +01 14 08.7          15.9 R      XXX

     K03YB7Q  C2006 05 20.70521 16 34 00.87 +01 52 53.8          15.2 R      XXX

     K03YB7Q  C2006 05 20.70596 16 34 00.82 +01 52 55.7          15.2 R      XXX

     K03YB7Q  C2006 05 20.70672 16 34 00.75 +01 52 57.5          14.8 R      XXX

     K03YB7Q  C2006 05 20.71086 16 34 00.40 +01 53 07.6          14.6 R      XXX

     K03YB7Q  C2006 05 20.71161 16 34 00.33 +01 53 09.5          14.7 R      XXX

     K03YB7Q  C2006 05 20.71237 16 34 00.27 +01 53 11.3          14.6 R      XXX

     K03YB7Q  C2006 05 20.71313 16 34 00.21 +01 53 13.2          14.6 R      XXX

     K03YB7Q  C2006 05 20.71388 16 34 00.14 +01 53 15.1          14.6 R      XXX

     K03YB7Q  C2006 05 20.71464 16 34 00.08 +01 53 16.9          15.0 R      XXX

     K03YB7Q  C2006 05 20.71539 16 34 00.01 +01 53 18.7          14.6 R      XXX

     K03YB7Q 5C2006 05 21.67761 16 32 41.39 +02 32 53.1          16.7 V      300

     K03YB7Q 5C2006 05 21.68280 16 32 40.96 +02 33 05.8          16.6 V      300

     K03YB7Q 5C2006 05 21.68789 16 32 40.56 +02 33 19.1          16.6 V      300

     K03YB7Q 5C2006 05 21.69807 16 32 39.62 +02 33 44.2          16.4 V      300



 次の軌道は,2002年の発見前の観測から上の観測まで,4回の衝に行なわれた121個の

観測を使用して計算されたもの.

               。

       Mo= 305.1223                Epoch = 2006 Mar.  6.0 TT

       ω = 135.5654                   e =   0.654784          H = 15.2

       Ω = 217.6801    (2000.0)       a =   2.181840 AU       G =  0.15

       i =  20.9950                   n゚=   0.3058227

       q =   0.753205 AU              P =   3.22 年



  今後の位置予報は次のとおり.小惑星は,衝位置近くを動き,しばらく観測できる.



2006/        α  (2000) δ      △      r     日々運動   Elong.  Phase   V  

  0h TT     h  m       。  ,        AU      AU    ,  PA 。     。      。      等

May   1   16 49.89  -08 53.7    0.857   1.783  26.1/349   145.8   18.5   17.1

      2   16 49.55  -08 28.1    0.843   1.774  26.9/348   146.6   18.2   17.0

      3   16 49.16  -08 01.8    0.830   1.765  27.8/347   147.5   17.9   17.0

      4   16 48.73  -07 34.8    0.816   1.756  28.7/346   148.3   17.6   16.9

      5   16 48.25  -07 07.1    0.803   1.747  29.6/345   149.1   17.3   16.8

      6   16 47.73  -06 38.6    0.790   1.738  30.5/344   149.9   16.9   16.8

      7   16 47.15  -06 09.3    0.777   1.728  31.5/343   150.6   16.6   16.7

      8   16 46.53  -05 39.2    0.764   1.719  32.4/342   151.4   16.3   16.7

      9   16 45.85  -05 08.4    0.752   1.710  33.4/341   152.0   16.1   16.6

     10   16 45.13  -04 36.8    0.740   1.701  34.4/340   152.7   15.8   16.6

     11   16 44.35  -04 04.4    0.728   1.692  35.5/340   153.3   15.6   16.5

     12   16 43.52  -03 31.1    0.716   1.682  36.5/339   153.8   15.4   16.4

     13   16 42.64  -02 57.1    0.704   1.673  37.6/338   154.3   15.2   16.4

     14   16 41.70  -02 22.2    0.693   1.664  38.7/337   154.7   15.0   16.3

     15   16 40.71  -01 46.5    0.682   1.655  39.7/337   155.1   14.9   16.3

     16   16 39.67  -01 10.0    0.671   1.645  40.8/336   155.4   14.8   16.2

     17   16 38.57  -00 32.6    0.661   1.636  41.9/336   155.6   14.8   16.2

     18   16 37.42  +00 05.6    0.651   1.626  43.0/335   155.7   14.9   16.2

     19   16 36.21  +00 44.6    0.641   1.617  44.1/335   155.7   14.9   16.1

     20   16 34.94  +01 24.4    0.631   1.607  45.2/334   155.6   15.1   16.1

     21   16 33.62  +02 05.0    0.621   1.598  46.3/333   155.4   15.3   16.0

     22   16 32.24  +02 46.4    0.612   1.588  47.3/333   155.1   15.6   16.0

     23   16 30.81  +03 28.6    0.603   1.579  48.4/333   154.7   15.9   16.0

     24   16 29.31  +04 11.5    0.594   1.569  49.4/332   154.3   16.3   15.9

     25   16 27.77  +04 55.1    0.586   1.560  50.4/332   153.7   16.7   15.9

     26   16 26.16  +05 39.4    0.578   1.550  51.4/331   153.0   17.2   15.9

     27   16 24.50  +06 24.4    0.570   1.541  52.3/331   152.3   17.8   15.8

     28   16 22.79  +07 10.1    0.562   1.531  53.2/330   151.4   18.5   15.8

     29   16 21.02  +07 56.3    0.555   1.521  54.0/330   150.5   19.1   15.8

     30   16 19.20  +08 43.1    0.548   1.511  54.8/330   149.5   19.9   15.8

     31   16 17.33  +09 30.4    0.541   1.502  55.6/329   148.5   20.7   15.8

June  1   16 15.40  +10 18.2    0.534   1.492  56.3/329   147.4   21.5   15.8

      2   16 13.43  +11 06.4    0.528   1.482  57.0/329   146.2   22.4   15.7

      3   16 11.41  +11 55.0    0.522   1.472  57.6/328   145.0   23.3   15.7

      4   16 09.34  +12 43.9    0.516   1.463  58.1/328   143.7   24.2   15.7

      5   16 07.23  +13 33.2    0.511   1.453  58.6/328   142.4   25.2   15.7

      6   16 05.07  +14 22.6    0.505   1.443  59.0/327   141.0   26.2   15.7

      7   16 02.87  +15 12.3    0.500   1.433  59.4/327   139.6   27.3   15.7

      8   16 00.63  +16 02.1    0.495   1.423  59.7/327   138.2   28.4   15.7

      9   15 58.34  +16 51.9    0.491   1.413  59.9/326   136.8   29.5   15.7

     10   15 56.02  +17 41.8    0.486   1.403  60.1/326   135.3   30.6   15.7

     11   15 53.67  +18 31.7    0.482   1.393  60.2/326   133.8   31.7   15.7

     12   15 51.28  +19 21.5    0.478   1.383  60.3/326   132.3   32.9   15.7

     13   15 48.86  +20 11.1    0.475   1.373  60.3/325   130.8   34.0   15.7

     14   15 46.40  +21 00.6    0.471   1.363  60.2/325   129.3   35.2   15.7

     15   15 43.92  +21 49.9    0.468   1.353  60.1/325   127.7   36.4   15.7





軌道と残差:



2003 YQ117                                                                  

Epoch 2006 Mar. 6.0 TT = JDT 2453800.5                  Nakano

M 305.12230              (2000.0)            P               Q

n   0.30582270     Peri.  135.56543     +0.96464950     +0.14659181

a   2.1818400      Node   217.68005     -0.17393744     +0.97845723

e   0.6547844      Incl.   20.99495     +0.19798258     +0.14536949

P   3.22           H   15.2           G   0.15           U   2

Residuals in seconds of arc 

020315 644  0.0   1.0-    040311 474  0.1-  0.7+    060511 H45  0.2+  0.2-  

020408 644  0.5+  0.8-    040311 474  0.7-  0.8+    060511 H45  0.1-  0.1-  

020408 644  0.4-  0.5-    050217 F65  0.0   0.1+    060512 E14 (0.5-  2.1+) 

020408 644  0.8-  0.5-    050217 F65  0.0   0.3+    060512 E14  0.1-  0.5+  

020419 644  0.4+  0.4+    050217 F65  0.1-  0.1+    060512 E14  0.1+  0.7+  

020419 644  0.1-  0.3-    050409 448  0.6-  0.7-    060518 H45  0.0   0.1+  

020419 644  0.7+  1.0+    050409 448  0.3+  0.8-    060518 H45  0.3+  0.3+  

031226 608  0.3+  0.1+    050409 448  0.4+  0.8-    060518 H45  0.4+  0.4+  

031226 608  0.6+  0.3-    060305 G96  0.1-  0.4+    060518 H45  0.3+  0.4+  

031226 608  0.3+  0.0     060305 448  0.1+  0.2+    060518 H45  0.0   0.2+  

031227 474  0.8-  1.1+    060305 G96  0.3+  0.3+    060519 XXX  0.0   0.2-  

031227 474  0.6-  0.1+    060305 G96  0.3-  0.2+    060519 XXX  0.1-  0.2-  

031227 474  0.6+  0.3+    060305 448  0.2-  0.1+    060519 XXX  0.1-  0.0   

031227 474  0.3+  1.5-    060305 G96  0.1+  0.2+    060519 XXX  0.1+  0.1-  

031227 474  1.6+  0.2-    060305 448  0.3-  0.6-    060519 XXX  0.1+  0.1-  

031227 A50 (2.2+  1.2+)   060324 E12  0.3+  0.1-    060519 XXX  0.1+  0.0   

031228 A50  1.1-  0.3-    060324 E12  0.3+  0.0     060519 XXX  0.0   0.1-  

031228 A50  0.1+  0.5+    060324 E12  0.1-  0.4-    060519 XXX  0.0   0.1-  

031228 A50  1.7+  0.0     060324 E12  0.0   0.2-    060519 XXX  0.1+  0.0   

031229 H36  1.5-  0.8+    060409 808  0.3-  0.5-    060519 XXX  0.1-  0.1-  

031229 H36  0.2-  1.3+    060409 808  0.8-  0.1-    060520 J64  0.2+  0.4-  

031229 H36  0.5-  0.5-    060409 808  0.3-  1.4-    060520 J64  0.0   0.4-  

040101 474  0.5+  0.2+    060409 808  0.9+  0.6-    060520 J64  0.3-  0.4-  

040101 474  0.2+  0.0     060413 644  0.1-  0.3+    060520 703  0.1-  0.1-  

040101 474  0.1-  0.1+    060413 644  0.2-  0.4+    060520 703  0.4-  0.2+  

040101 474  0.2-  0.2-    060413 644  0.0   0.3+    060520 703  0.8-  0.1+  

040102 474  0.1+  0.4-    060424 704  0.1-  0.4-    060520 703  0.5-  0.4-  

040102 474  0.5+  0.1-    060424 704  0.3+  0.1+    060520 XXX  0.1-  0.0   

040102 474  0.1+  0.1-    060424 704  0.4+  0.2-    060520 XXX  0.1+  0.0   

040103 704  0.2+  0.5+    060424 704  0.2+  0.3+    060520 XXX  0.0   0.0   

040103 704  0.2-  0.5+    060425 113  0.4+  0.8+    060520 XXX  0.1+  0.1-  

040103 704  0.1-  0.0     060425 113  0.7+  0.5+    060520 XXX  0.0   0.0   

040106 926  0.0   1.0-    060425 113  0.5+  0.4+    060520 XXX  0.1+  0.1-  

040106 926  0.4+  0.3-    060429 A13  0.7-  0.7+    060520 XXX  0.1+  0.0   

040106 926  0.1+  0.1-    060429 A13  0.6-  0.7+    060520 XXX  0.1+  0.0   

040119 608  0.3+  0.0     060508 H55  0.2-  0.1-    060520 XXX  0.1+  0.0   

040119 608  0.1-  0.2+    060508 H55  0.1-  0.1+    060520 XXX  0.0   0.1-  

040119 608  0.1-  0.1-    060508 H55  0.6+  0.7-    060521 300  0.6-  0.2+  

040311 474  0.0   0.8+    060511 H45  0.3-  0.1-    060521 300  0.2-  0.0   

040311 474  0.8-  0.3+    060511 H45  0.2+  0.1-    060521 300  0.5+  0.6+  

040311 474  0.5-  0.3-    060511 H45  0.2-  0.2-    060521 300  0.1-  0.4+  

 

日本スペースガード協会            (c) Copyright JSGA 2006           中野 主一

         **** Don't distribute anyone except personal use only ****

                (C) Copyright 2006 OAA/ComputingSection

write mail from CFAD0::NAKANO on 2006-05-22 06:48:01(JST).

 

戻ります。